Mount Holly, NJ

4:40 PM EST on December 10, 2019 (GMT -0500)
South Jersey Regional

Weather History for KVAY - October, 2019

Change the Weather History Date:

Saturday, October 5, 2019

  Actual Average (WUND) Record (WUND)
Temperature  
Mean Temperature 52 °F -  
Max Temperature 62 °F - - (-1)
Min Temperature 44 °F - - (-1)
Degree Days  
Heating Degree Days 12    
Growing Degree Days 2 (Base 50)    
Moisture  
Dew Point 40 °F    
Average Humidity 65    
Maximum Humidity 83    
Minimum Humidity 42    
Precipitation  
Precipitation 0.00 in - - ()
Sea Level Pressure  
Sea Level Pressure 30.40 in    
Wind  
Wind Speed 6 mph (NNE)    
Max Wind Speed 9 mph    
Max Gust Speed -    
Visibility 10 miles    
Events      
Averages and records for this station are not official NWS values.
T = Trace of Precipitation, MM = Missing Value Source: NWS Daily Summary

Daily Weather History Graph

Daily Weather History Graph

Search for Another Location

Airport or City:

Astronomy

Oct. 05, 2019 Rise Set
Actual Time 6:59 AM EDT 6:35 PM EDT
Civil Twilight 6:32 AM EDT 7:02 PM EDT
Nautical Twilight 6:01 AM EDT 7:33 PM EDT
Astronomical Twilight 5:29 AM EDT 8:05 PM EDT
Moon 2:22 PM EDT (10/5) 11:56 PM EDT (10/5)
Length of Visible Light 12h 30m
Length of Day
11h 36m
Waxing Crescent, 50% of the Moon is Illuminated
Oct 5
Waxing Crescent
Oct 5
First Quarter
Oct 13
Full
Oct 21
Last Quarter
Oct 27
New

Hourly Weather History & Observations

Time (EDT) Temp. Windchill Dew Point Humidity Pressure Visibility Wind Dir Wind Speed Gust Speed Precip Events Conditions
12:54 AM 46.0 °F 43.9 °F 37.9 °F 73% 30.35 in 10.0 mi North 4.6 mph - N/A   Clear
1:54 AM 45.0 °F 40.6 °F 37.9 °F 76% 30.38 in 10.0 mi North 8.1 mph - N/A   Clear
2:54 AM 45.0 °F 41.8 °F 37.9 °F 76% 30.38 in 10.0 mi North 5.8 mph - N/A   Clear
3:54 AM 46.0 °F 41.9 °F 37.0 °F 71% 30.40 in 10.0 mi North 8.1 mph - N/A   Clear
4:54 AM 44.1 °F 39.0 °F 37.0 °F 76% 30.40 in 10.0 mi NNE 9.2 mph - N/A   Clear
5:54 AM 45.0 °F 40.1 °F 36.0 °F 71% 30.40 in 10.0 mi NNE 9.2 mph - N/A   Clear
6:54 AM 44.1 °F 39.0 °F 35.1 °F 71% 30.41 in 10.0 mi NNE 9.2 mph - N/A   Clear
7:54 AM 45.0 °F 41.2 °F 37.0 °F 74% 30.44 in 10.0 mi North 6.9 mph - N/A   Clear
8:54 AM 48.9 °F - 37.0 °F 64% 30.45 in 10.0 mi NNE 6.9 mph - N/A   Clear
9:54 AM 52.0 °F - 37.9 °F 59% 30.46 in 10.0 mi NNE 8.1 mph - N/A   Clear
10:54 AM 55.0 °F - 39.0 °F 55% 30.46 in 10.0 mi NE 6.9 mph - N/A   Clear
11:54 AM 59.0 °F - 39.0 °F 48% 30.45 in 10.0 mi ENE 8.1 mph - N/A   Partly Cloudy
12:54 PM 59.0 °F - 37.9 °F 46% 30.44 in 10.0 mi Variable 3.5 mph - N/A   Clear
1:54 PM 61.0 °F - 37.9 °F 42% 30.41 in 10.0 mi Variable 6.9 mph - N/A   Clear
2:54 PM 60.1 °F - 39.0 °F 46% 30.40 in 10.0 mi Variable 4.6 mph - N/A   Scattered Clouds
3:54 PM 59.0 °F - 39.9 °F 49% 30.39 in 10.0 mi Variable 6.9 mph - N/A   Clear
4:54 PM 60.1 °F - 41.0 °F 49% 30.38 in 10.0 mi SE 8.1 mph - N/A   Scattered Clouds
5:54 PM 57.9 °F - 41.0 °F 53% 30.38 in 10.0 mi Calm Calm - N/A   Partly Cloudy
6:54 PM 55.0 °F - 43.0 °F 64% 30.38 in 10.0 mi ESE 4.6 mph - N/A   Partly Cloudy
7:54 PM 50.0 °F - 43.0 °F 77% 30.37 in 10.0 mi Calm Calm - N/A   Clear
8:54 PM 48.9 °F - 44.1 °F 83% 30.38 in 10.0 mi Calm Calm - N/A   Overcast
9:54 PM 51.1 °F - 46.0 °F 83% 30.38 in 10.0 mi Calm Calm - N/A   Overcast
10:54 PM 52.0 °F - 46.0 °F 80% 30.37 in 10.0 mi Calm Calm - N/A   Overcast
11:54 PM 53.1 °F - 46.0 °F 77% 30.35 in 10.0 mi Calm Calm - N/A   Overcast